{"data":{"norad_id":69758,"epoch":"2026-09-19T18:52:52.236480Z","epoch_age_seconds":79399,"freshness":"FRESH","line1":"1 69758U 26150V   26262.78671570  .00011959  00000+0  37224-3 0  9993","line2":"2 69758  97.2849 101.6800 0001408  90.7654 269.3750 15.33437459 13624","mean_motion":15.33437459,"eccentricity":0.0001408,"inclination_deg":97.2849,"raan_deg":101.68,"arg_perigee_deg":90.7654,"mean_anomaly_deg":269.375,"bstar":0.00037224,"rev_number":1362,"period_min":93.906666460272,"perigee_km":464.60201795287,"apogee_km":466.5292046082,"semimajor_km":6843.7026112805,"source":"CELESTRAK","updated_at":"2026-09-20T09:00:44.290041Z"}}